TOPSWRTT 000
TTAA00 KICT 182012

Wichita AWIPS Roundup
National Weather Service Wichita KS
200 PM CST THU DEC 18 2014

....Central Kansas....
  
CITY           SKY/WX    TMP DP  RH WIND       PRES   REMARKS
RUSSELL        CLOUDY    31  28  89 CALM      30.13F                  
SALINA         CLOUDY    32  27  81 NW3       30.18F                  
GREAT BEND     CLOUDY    30  25  80 CALM      30.16F                  
ELLSWORTH      CLOUDY    32  28  86 NW3       30.16S                  
MCPHERSON      CLOUDY    30  28  93 NW6       30.16F WCI  24          
HAYS           CLOUDY    32  21  64 CALM      30.14F                  

....South Central Kansas....
  
CITY           SKY/WX    TMP DP  RH WIND       PRES   REMARKS
HUTCHINSON     CLOUDY    34  29  82 NW7       30.16F HAZE    WCI  28  
NEWTON         CLOUDY    32  27  80 NW6       30.17S WCI  26          
KINGMAN        CLOUDY    36  34  93 N7        30.15F WCI  30          
WICHITA (ICT)  CLOUDY    35  30  82 NW7       30.16F WCI  29          
JABARA ARPT    CLOUDY    33  31  92 NW5       30.16S WCI  29          
MCCONNELL AFB  CLOUDY    34  32  93 N6        30.16F WCI  29          
EL DORADO      CLOUDY    36  34  93 N3        30.15F                  
HARPER           N/A     34  31  89 CALM      30.17F                  
WELLINGTON     CLOUDY    37  36  93 N6        30.17F FOG     WCI  33  
WINFIELD       CLOUDY    36  35  96 N6        30.17F WCI  31          
 
....Southeast Kansas....
  
CITY           SKY/WX    TMP DP  RH WIND       PRES   REMARKS
EUREKA         FOG       34  32  93 CALM      30.16S VSB 1            
CHANUTE        FOG       34  34 100 VRB7      30.18S VSB 1/2 WCI  28  
PARSONS        CLOUDY    38  36  92 NW7       30.18F WCI  33          
COFFEYVILLE    CLOUDY    37  36  96 NW3       30.17F                  
INDEPENDENCE   CLOUDY    36  34  93 NW5       30.17S WCI  32          
FORT SCOTT     CLOUDY    36  36 100 NW3       30.17R                  
PITTSBURG      CLOUDY    38  39 100 CALM      30.16S                  

....Western Kansas....
  
CITY           SKY/WX    TMP DP  RH WIND       PRES   REMARKS
GOODLAND       SUNNY     38  32  79 W7        30.05F WCI  33          
HILL CITY      CLOUDY    31  27  85 W5        30.14F WCI  26          
LIBERAL        CLOUDY    36  30  80 NE5       30.12F WCI  32          
GARDEN CITY    CLOUDY    33  30  88 VRB3      30.10F                  
DODGE CITY     CLOUDY    34  29  82 N6        30.12F WCI  29          
PRATT          CLOUDY    34  32  93 N6        30.16S WCI  29          
MEDICINE LODGE   N/A     36  33  89 NW6       30.15F WCI  31          

....Northeast Kansas....
  
CITY           SKY/WX    TMP DP  RH WIND       PRES   REMARKS
CONCORDIA      PTSUNNY   30  26  85 CALM      30.17F                  
TOPEKA         CLOUDY    34  30  85 CALM      30.20F FOG              
MANHATTAN      CLOUDY    33  29  85 CALM      30.19F                  
LAWRENCE       CLOUDY    33  29  85 NE3       30.20F FOG              
OLATHE         CLOUDY    33  30  88 E5        30.17F FOG     WCI  29  
EMPORIA        CLOUDY    32  30  92 N3        30.16F FOG              

....Oklahoma....
  
CITY           SKY/WX    TMP DP  RH WIND       PRES   REMARKS
GAGE           CLOUDY    39  37  92 N6        30.12F WCI  35          
PONCA CITY     CLOUDY    41  37  86 N8        30.16F WCI  36          
BARTLESVILLE   CLOUDY    39  37  92 CALM      30.18F                  
TULSA          CLOUDY    42  39  89 CALM      30.16F                  
OKLAHOMA CITY  CLOUDY    43  39  86 CALM      30.13F FOG              

Note: "fair" indicates few or no clouds below 12,000 feet with no
significant weather and/or obstructions to visibility.

USA.gov is the U.S. government's official web portal to all federal, state and local government web resources and services.